Location: Unspecified
(47.6577°N, 23.5639°E)
Time: 17:51:02
(UTC+03:00)

ISS - Pass Details

Date: 05 February 2017
Orbit: 402 x 409 km, 51.6° (Epoch: 24 May)

Event Time Altitude Azimuth Distance (km) Brightness Sun altitude
Rises 19:49:25 0° 284° (WNW) 2,334 1.4 -23.2°
Reaches altitude 10° 19:51:36 10° 292° (WNW) 1,470 -0.1 -23.6°
Enters shadow 19:53:36 29° 318° (NW) 783 -2.0 -23.9°
